Location: Cz?stochówka
(50.8142°N, 19.0915°E)
Time: 01:49:59
(UTC+00:00)

Cosmos 2366 rocket - Pass Details

Date: 11 April 2026
Orbit: 954 x 996 km, 82.9° (Epoch: 19 May)

Event Time Altitude Azimuth Distance (km) Brightness Sun altitude
Rises 21:25:29 0° 239° (WSW) 3,647 6.9 -28.2°
Reaches altitude 10° 21:28:48 10° 257° (WSW) 2,698 6.4 -28.4°
Maximum altitude 21:33:04 19° 301° (WNW) 2,114 6.3 -28.6°
Drops below altitude 10° 21:37:20 10° 345° (NNW) 2,698 7.3 -28.8°
Sets 21:40:40 0° 3° (N) 3,646 8.0 -29.0°
